Holbrook, NY

11:59 PM EST on February 26, 2017 (GMT -0500)
Long Island Mac Arthur

Weather History for KISP - June, 2013

Change the Weather History Date:

Thursday, June 27, 2013

  Actual Average Record
Temperature  
Mean Temperature 77 °F 72 °F  
Max Temperature 82 °F 80 °F 93 °F (2003)
Min Temperature 71 °F 64 °F 52 °F (2004)
Degree Days  
Heating Degree Days 0 0  
Month to date heating degree days 12 36  
Since 1 June heating degree days 12 36  
Since 1 July heating degree days 5102 5426  
Cooling Degree Days 12 7  
Month to date cooling degree days 139 118  
Year to date cooling degree days 171 142  
Since 1 June cooling degree days 139 118  
Growing Degree Days 26 (Base 50)    
Moisture  
Dew Point 69 °F    
Average Humidity 81    
Maximum Humidity 93    
Minimum Humidity 69    
Precipitation  
Precipitation 0.10 in 0.11 in 0.62 in (2015)
Month to date precipitation 8.13 3.94  
Year to date precipitation 23.48 23.40  
Snow  
Snow 0.00 in 0.00 in - ()
Month to date snowfall 0.0 0.0  
Since 1 July snowfall 46.9 24.8  
Snow Depth 0.00 in    
Sea Level Pressure  
Sea Level Pressure 29.72 in    
Wind  
Wind Speed 8 mph (SSE)    
Max Wind Speed 21 mph    
Max Gust Speed 30 mph    
Visibility 9 miles    
Events Rain , Thunderstorm    
T = Trace of Precipitation, MM = Missing Value Source: NWS Daily Summary

Daily Weather History Graph

Daily Weather History Graph

Search for Another Location

Airport or City:

Trip Planner

Search our weather history database for the weather conditions in past years. The results will help you decide how hot, cold, wet, or windy it might be!

Date:

Astronomy

Jun. 27, 2013 Rise Set
Actual Time 5:23 AM EDT 8:27 PM EDT
Civil Twilight 4:49 AM EDT 9:01 PM EDT
Nautical Twilight 4:06 AM EDT 9:43 PM EDT
Astronomical Twilight 3:16 AM EDT 10:34 PM EDT
Moon 11:21 PM EDT 10:22 AM EDT
Length of Visible Light 16h 11m
Length of Day
15h 04m
Waning Gibbous, 76% of the Moon is Illuminated
Jun 27
Waning Gibbous
Jun 30
Last Quarter
Jul 8
New
Jul 15
First Quarter
Jul 22
Full

Hourly Weather History & Observations

Time (EDT) Temp. Heat Index Dew Point Humidity Pressure Visibility Wind Dir Wind Speed Gust Speed Precip Events Conditions
12:56 AM 73.0 °F - 66.9 °F 81% 29.79 in 10.0 mi WSW 8.1 mph - N/A   Scattered Clouds
1:56 AM 73.0 °F - 68.0 °F 84% 29.77 in 10.0 mi West 3.5 mph - N/A   Clear
2:56 AM 73.0 °F - 66.9 °F 81% 29.76 in 10.0 mi WSW 3.5 mph - N/A   Clear
3:56 AM 73.0 °F - 68.0 °F 84% 29.75 in 10.0 mi ENE 3.5 mph - N/A   Clear
4:56 AM 72.0 °F - 66.9 °F 84% 29.78 in 10.0 mi East 4.6 mph - N/A   Mostly Cloudy
5:56 AM 71.1 °F - 68.0 °F 90% 29.78 in 6.0 mi SE 5.8 mph - N/A   Overcast
6:56 AM 73.0 °F - 69.1 °F 87% 29.78 in 7.0 mi SSE 3.5 mph - N/A   Mostly Cloudy
7:56 AM 75.0 °F - 70.0 °F 84% 29.78 in 9.0 mi SSW 5.8 mph - N/A   Mostly Cloudy
8:56 AM 77.0 °F - 70.0 °F 79% 29.78 in 10.0 mi Calm Calm - N/A   Mostly Cloudy
9:56 AM 79.0 °F - 69.1 °F 72% 29.77 in 10.0 mi Calm Calm - N/A   Overcast
10:56 AM 79.0 °F - 70.0 °F 74% 29.76 in 10.0 mi NE 6.9 mph - N/A   Overcast
11:56 AM 80.1 °F 83.2 °F 70.0 °F 71% 29.76 in 9.0 mi East 6.9 mph - N/A   Mostly Cloudy
12:29 PM 80.6 °F 83.9 °F 69.8 °F 70% 29.76 in 9.0 mi SE 8.1 mph - N/A   Mostly Cloudy
12:56 PM 81.0 °F 84.4 °F 70.0 °F 69% 29.75 in 10.0 mi SE 10.4 mph - N/A   Mostly Cloudy
1:56 PM 81.0 °F 84.4 °F 70.0 °F 69% 29.75 in 10.0 mi SE 10.4 mph - N/A   Mostly Cloudy
2:56 PM 80.1 °F 83.2 °F 70.0 °F 71% 29.74 in 10.0 mi SE 10.4 mph - N/A   Mostly Cloudy
3:23 PM 78.8 °F - 69.8 °F 74% 29.74 in 10.0 mi South 13.8 mph - N/A   Mostly Cloudy
3:56 PM 77.0 °F - 69.1 °F 76% 29.74 in 10.0 mi South 10.4 mph - N/A   Overcast
4:56 PM 78.1 °F - 70.0 °F 76% 29.71 in 10.0 mi SSE 8.1 mph - N/A   Mostly Cloudy
5:56 PM 75.9 °F - 69.1 °F 79% 29.70 in 10.0 mi SSE 10.4 mph - N/A   Mostly Cloudy
6:30 PM 73.4 °F - 69.8 °F 88% 29.70 in 10.0 mi South 12.7 mph - N/A   Mostly Cloudy
6:56 PM 73.9 °F - 69.1 °F 85% 29.71 in 10.0 mi SSE 11.5 mph - N/A   Mostly Cloudy
7:56 PM 73.9 °F - 69.1 °F 85% 29.69 in 10.0 mi SE 10.4 mph - N/A   Mostly Cloudy
8:33 PM 73.4 °F - 68.0 °F 83% 29.68 in 10.0 mi ESE 11.5 mph - N/A   Mostly Cloudy
8:56 PM 73.0 °F - 68.0 °F 84% 29.66 in 10.0 mi ESE 9.2 mph - N/A   Overcast
9:08 PM 73.4 °F - 69.8 °F 88% 29.67 in 10.0 mi SE 9.2 mph - N/A   Overcast
9:56 PM 73.0 °F - 69.1 °F 87% 29.63 in 10.0 mi SE 18.4 mph 24.2 mph N/A Thunderstorm Thunderstorm
10:13 PM 73.4 °F - 69.8 °F 88% 29.63 in 1.5 mi SSE 16.1 mph 26.5 mph 0.01 in Rain , Thunderstorm Heavy Thunderstorms and Rain
10:31 PM 73.4 °F - 71.6 °F 94% 29.63 in 2.0 mi SE 18.4 mph 25.3 mph 0.10 in Thunderstorm Overcast
10:56 PM 73.0 °F - 71.1 °F 93% 29.62 in 2.0 mi South 10.4 mph 24.2 mph 0.10 in   Overcast
11:56 PM 73.0 °F - 71.1 °F 93% 29.60 in 4.0 mi South 13.8 mph 24.2 mph 0.00 in   Overcast